STARLINK-35207

Last updated on Mon Oct 06 2025 00:02:05 GMT+0000 (Coordinated Universal Time)

1 65500U 25198J 25278.50001156 .00114990 00000+0 20509-2 0 9994 2 65500 53.1587 280.4864 0001240 81.3733 78.4801 15.49230758 5581

Satellite not in orbit

STARLINK-35207